Natchitoches, LA

10:06 PM CDT on October 18, 2019 (GMT -0500)
Natchitoches Regional

Weather History for KIER - August, 2019

Change the Weather History Date:

Tuesday, August 13, 2019

  Actual Average Record
Temperature  
Mean Temperature 89 °F -  
Max Temperature 102 °F 93 °F 106 °F (1948)
Min Temperature 76 °F 71 °F 57 °F (2004)
Cooling Degree Days 24    
Growing Degree Days 39 (Base 50)    
Moisture  
Dew Point 76 °F    
Average Humidity 71    
Maximum Humidity 98    
Minimum Humidity 37    
Precipitation  
Precipitation 0.00 in - - ()
Sea Level Pressure  
Sea Level Pressure 29.91 in    
Wind  
Wind Speed 2 mph (SW)    
Max Wind Speed 12 mph    
Max Gust Speed -    
Visibility 10 miles    
Events      
Averages and records for this station are not official NWS values.
T = Trace of Precipitation, MM = Missing Value Source: NWS Daily Summary

Daily Weather History Graph

Daily Weather History Graph

Search for Another Location

Airport or City:

Astronomy

Aug. 13, 2019 Rise Set
Actual Time 6:35 AM CDT 7:58 PM CDT
Civil Twilight 6:10 AM CDT 8:23 PM CDT
Nautical Twilight 5:39 AM CDT 8:54 PM CDT
Astronomical Twilight 5:07 AM CDT 9:26 PM CDT
Moon 7:06 PM CDT (8/13) 4:46 AM CDT (8/13)
Length of Visible Light 14h 13m
Length of Day
13h 22m
Waxing Gibbous, 97% of the Moon is Illuminated
Aug 13
Waxing Gibbous
Aug 15
Full
Aug 23
Last Quarter
Aug 30
New
Sep 5
First Quarter

Hourly Weather History & Observations

Time (CDT) Temp. Heat Index Dew Point Humidity Pressure Visibility Wind Dir Wind Speed Gust Speed Precip Events Conditions
12:15 AM 78.3 °F - 75.2 °F 90% 29.91 in 10.0 mi Calm Calm - N/A   Clear
12:35 AM 78.4 °F - 75.2 °F 90% 29.91 in 10.0 mi Calm Calm - N/A   Clear
12:55 AM 78.8 °F - 75.2 °F 89% 29.91 in 10.0 mi SSW 3.5 mph - N/A   Clear
1:15 AM 79.5 °F - 75.6 °F 88% 29.90 in 10.0 mi SSW 3.5 mph - N/A   Clear
1:35 AM 79.7 °F - 75.7 °F 88% 29.90 in 10.0 mi Calm Calm - N/A   Clear
1:55 AM 79.5 °F - 75.6 °F 88% 29.90 in 10.0 mi Calm Calm - N/A   Clear
2:15 AM 79.2 °F - 75.7 °F 89% 29.89 in 10.0 mi SSW 5.8 mph - N/A   Clear
2:35 AM 79.2 °F - 75.7 °F 89% 29.89 in 10.0 mi SSW 3.5 mph - N/A   Clear
2:55 AM 78.8 °F - 75.7 °F 90% 29.89 in 10.0 mi SW 4.6 mph - N/A   Clear
3:15 AM 78.8 °F - 76.1 °F 91% 29.89 in 10.0 mi SSW 4.6 mph - N/A   Clear
3:35 AM 78.8 °F - 76.1 °F 91% 29.89 in 10.0 mi SW 3.5 mph - N/A   Clear
3:55 AM 78.1 °F - 75.9 °F 93% 29.90 in 10.0 mi Calm Calm - N/A   Clear
4:15 AM 77.5 °F - 75.7 °F 94% 29.89 in 10.0 mi Calm Calm - N/A   Clear
4:35 AM 77.0 °F - 75.6 °F 95% 29.90 in 10.0 mi Calm Calm - N/A   Clear
4:55 AM 77.0 °F - 75.7 °F 96% 29.89 in 10.0 mi Calm Calm - N/A   Clear
5:15 AM 76.6 °F - 75.4 °F 96% 29.89 in 10.0 mi Calm Calm - N/A   Clear
5:35 AM 76.1 °F - 75.2 °F 97% 29.90 in 10.0 mi Calm Calm - N/A   Clear
5:55 AM 76.1 °F - 75.4 °F 98% 29.91 in 10.0 mi Calm Calm - N/A   Clear
6:15 AM 76.3 °F - 75.7 °F 98% 29.92 in 10.0 mi Calm Calm - N/A   Clear
6:35 AM 76.5 °F - 75.7 °F 98% 29.93 in 10.0 mi Calm Calm - N/A   Clear
6:55 AM 76.5 °F - 75.7 °F 98% 29.93 in 7.0 mi Calm Calm - N/A   Clear
7:15 AM 77.7 °F - 76.6 °F 96% 29.93 in 10.0 mi SSW 3.5 mph - N/A   Clear
7:55 AM 82.6 °F 91.7 °F 77.5 °F 85% 29.94 in 10.0 mi Calm Calm - N/A   Clear
8:15 AM 84.4 °F 95.4 °F 77.9 °F 81% 29.95 in 10.0 mi WSW 4.6 mph - N/A   Clear
8:35 AM 85.5 °F 97.2 °F 77.9 °F 78% 29.94 in 10.0 mi WSW 8.1 mph - N/A   Clear
8:55 AM 86.4 °F 98.8 °F 78.1 °F 76% 29.95 in 10.0 mi West 8.1 mph - N/A   Clear
9:15 AM 87.8 °F 100.8 °F 77.7 °F 72% 29.95 in 10.0 mi WNW 11.5 mph - N/A   Clear
9:35 AM 87.4 °F 99.2 °F 77.2 °F 71% 29.95 in 10.0 mi WNW 8.1 mph - N/A   Clear
9:55 AM 88.7 °F 101.6 °F 77.4 °F 69% 29.96 in 10.0 mi WNW 9.2 mph - N/A   Clear
10:15 AM 91.0 °F 104.8 °F 77.2 °F 64% 29.96 in 10.0 mi WSW 5.8 mph - N/A   Clear
10:35 AM 91.4 °F 105.1 °F 77.4 °F 63% 29.96 in 10.0 mi West 5.8 mph - N/A   Clear
10:55 AM 92.7 °F 106.4 °F 77.2 °F 60% 29.96 in 10.0 mi Calm Calm - N/A   Scattered Clouds
11:15 AM 93.6 °F 107.4 °F 76.8 °F 58% 29.96 in 10.0 mi NW 3.5 mph - N/A   Scattered Clouds
11:35 AM 93.0 °F 104.6 °F 75.2 °F 56% 29.96 in 10.0 mi Calm Calm - N/A   Scattered Clouds
11:55 AM 92.8 °F 105.5 °F 75.9 °F 58% 29.96 in 10.0 mi NNW 3.5 mph - N/A   Scattered Clouds
12:15 PM 93.2 °F 105.7 °F 75.9 °F 57% 29.95 in 10.0 mi North 5.8 mph - N/A   Scattered Clouds
12:35 PM 93.7 °F 107.1 °F 76.3 °F 57% 29.95 in 10.0 mi NNW 5.8 mph - N/A   Scattered Clouds
12:55 PM 95.7 °F 106.9 °F 74.7 °F 50% 29.94 in 10.0 mi ESE 3.5 mph - N/A   Scattered Clouds
1:15 PM 96.6 °F 109.2 °F 75.2 °F 50% 29.93 in 10.0 mi NNW 3.5 mph - N/A   Clear
1:35 PM 97.2 °F 109.7 °F 75.0 °F 49% 29.93 in 10.0 mi NNE 3.5 mph - N/A   Clear
1:55 PM 96.3 °F 106.8 °F 73.4 °F 48% 29.92 in 10.0 mi NNW 3.5 mph - N/A   Clear
2:15 PM 96.6 °F 107.6 °F 74.3 °F 48% 29.91 in 10.0 mi NNW 3.5 mph - N/A   Clear
2:35 PM 99.3 °F 109.3 °F 72.9 °F 42% 29.90 in 10.0 mi NNE 3.5 mph - N/A   Clear
2:55 PM 96.8 °F 107.3 °F 73.4 °F 47% 29.89 in 10.0 mi North 3.5 mph - N/A   Clear
3:15 PM 100.0 °F 111.8 °F 74.1 °F 43% 29.88 in 10.0 mi North 4.6 mph - N/A   Clear
3:35 PM 97.2 °F 105.9 °F 72.0 °F 44% 29.88 in 10.0 mi Calm Calm - N/A   Scattered Clouds
3:55 PM 99.3 °F 109.3 °F 72.3 °F 42% 29.88 in 10.0 mi Calm Calm - N/A   Scattered Clouds
4:15 PM 101.3 °F 112.2 °F 72.7 °F 40% 29.88 in 10.0 mi Calm Calm - N/A   Clear
4:35 PM 102.2 °F 111.7 °F 71.4 °F 37% 29.87 in 10.0 mi Calm Calm - N/A   Clear
4:55 PM 97.3 °F 107.1 °F 72.5 °F 45% 29.87 in 10.0 mi ESE 3.5 mph - N/A   Clear
5:15 PM 98.4 °F 109.6 °F 73.6 °F 45% 29.87 in 10.0 mi SSE 3.5 mph - N/A   Clear
5:35 PM 97.3 °F 107.8 °F 73.2 °F 46% 29.86 in 10.0 mi South 3.5 mph - N/A   Clear
5:55 PM 98.6 °F 110.9 °F 74.5 °F 46% 29.86 in 10.0 mi South 3.5 mph - N/A   Clear
6:15 PM 95.0 °F 106.7 °F 74.8 °F 52% 29.86 in 10.0 mi SSE 4.6 mph - N/A   Clear
6:35 PM 93.7 °F 106.4 °F 76.1 °F 56% 29.87 in 10.0 mi SSE 4.6 mph - N/A   Clear
6:55 PM 95.2 °F 107.9 °F 75.6 °F 53% 29.87 in 10.0 mi South 5.8 mph - N/A   Clear
7:15 PM 94.1 °F 107.3 °F 76.3 °F 56% 29.87 in 10.0 mi SSE 5.8 mph - N/A   Clear
7:35 PM 91.9 °F 104.5 °F 76.3 °F 60% 29.87 in 10.0 mi SSE 5.8 mph - N/A   Clear
7:55 PM 90.0 °F 101.9 °F 76.5 °F 64% 29.88 in 10.0 mi Calm Calm - N/A   Clear
8:15 PM 85.5 °F 96.3 °F 77.0 °F 76% 29.88 in 10.0 mi SSW 3.5 mph - N/A   Clear
8:35 PM 85.5 °F 95.9 °F 76.8 °F 75% 29.89 in 10.0 mi Calm Calm - N/A   Clear
8:55 PM 84.2 °F 94.1 °F 77.0 °F 79% 29.89 in 10.0 mi Calm Calm - N/A   Clear
9:15 PM 83.3 °F 92.8 °F 77.2 °F 82% 29.89 in 10.0 mi Calm Calm - N/A   Clear
9:35 PM 83.5 °F 92.9 °F 77.2 °F 81% 29.90 in 10.0 mi Calm Calm - N/A   Clear
9:55 PM 81.7 °F 89.2 °F 76.8 °F 85% 29.90 in 10.0 mi Calm Calm - N/A   Clear
10:15 PM 82.9 °F 91.5 °F 76.6 °F 81% 29.91 in 10.0 mi SW 3.5 mph - N/A   Clear
10:35 PM 83.5 °F 92.2 °F 76.3 °F 79% 29.91 in 10.0 mi Calm Calm - N/A   Clear
10:55 PM 82.8 °F 90.7 °F 76.1 °F 80% 29.90 in 10.0 mi Calm Calm - N/A   Clear
11:15 PM 82.6 °F 90.5 °F 76.1 °F 81% 29.91 in 10.0 mi SSW 3.5 mph - N/A   Clear
11:35 PM 82.2 °F 89.9 °F 76.1 °F 82% 29.91 in 10.0 mi Calm Calm - N/A   Clear
11:55 PM 81.1 °F 87.8 °F 76.1 °F 85% 29.91 in 10.0 mi Calm Calm - N/A   Clear